Wind_Speed
14 16 16 16 16 16 17 19 18 16 16 17 19 21 23 23 24 25 24 23 24 24 24 23 23 24 23 22 21 20 20 20 19 19 19 20 20 19 18 17 17 17 18 17 17 17 18 19 19 18 18 18 17 15 15 15 15 15 14 14 13 12 12
18 17 16 17 18 18 17 18 21 20 17 17 19 21 23 24 24 26 26 25 24 25 26 25 25 25 24 22 21 21 21 20 20 21 20 21 21 20 19 18 18 17 18 18 18 18 19 20 20 20 20 19 18 17 16 16 16 15 15 15 14 14 14
22 20 17 16 17 19 19 19 21 22 18 18 19 20 23 24 25 26 27 26 26 28 29 26 23 24 23 22 21 22 22 21 21 22 22 22 22 21 20 19 19 18 18 19 19 20 20 20 21 21 20 20 19 18 17 17 16 16 16 16 15 15 16
25 23 21 19 18 18 20 21 23 23 21 19 19 20 23 25 27 27 27 28 28 29 29 25 22 23 24 24 23 23 22 22 22 22 22 22 22 22 21 20 20 20 19 20 20 20 21 21 21 22 21 20 19 19 18 18 17 17 17 17 16 16 17
28 27 25 23 22 20 19 20 23 25 24 22 21 22 23 25 27 28 28 29 28 28 27 25 24 26 27 26 24 23 22 22 22 23 23 23 23 23 23 23 22 21 21 21 21 21 21 21 22 22 22 21 20 19 19 18 18 18 18 17 17 17 17
31 31 29 27 27 26 23 20 22 25 26 25 24 24 23 24 26 28 29 29 27 26 27 27 27 28 29 28 26 24 23 23 24 24 24 23 24 24 24 24 24 23 23 22 22 22 21 21 22 22 22 21 19 19 19 19 18 18 18 17 16 17 18
32 32 31 30 29 29 27 23 22 24 26 27 27 26 25 24 25 26 27 27 26 26 27 27 28 29 29 28 28 27 25 25 25 25 24 22 23 24 25 25 25 24 24 23 23 23 21 21 22 22 22 20 20 19 19 19 18 18 17 16 16 18 19
32 31 31 30 29 29 28 27 24 24 26 28 30 29 27 26 25 24 25 27 27 28 28 28 29 29 29 29 30 29 27 27 26 25 23 22 23 24 24 25 25 25 25 24 24 24 23 22 22 22 21 20 20 20 19 19 19 18 18 18 19 19 20
31 31 30 29 29 29 29 29 27 25 26 28 31 31 29 27 25 24 25 28 28 28 28 29 30 30 30 31 31 29 29 30 27 25 24 24 24 24 24 25 26 26 26 25 25 24 23 22 22 21 21 21 22 22 21 20 20 20 19 20 20 20 20
31 32 31 29 28 29 29 30 29 28 27 28 31 32 31 28 26 25 27 28 29 28 29 30 31 31 31 31 32 30 31 31 28 26 26 25 25 26 26 27 27 28 29 26 25 25 23 22 22 21 21 23 23 22 21 20 20 20 20 21 21 21 21
29 30 31 30 29 29 30 31 31 30 29 30 31 33 33 32 29 28 28 29 30 31 32 32 32 32 31 32 33 32 31 31 30 28 27 28 28 28 29 29 29 30 30 25 23 25 24 22 21 22 23 23 22 21 20 19 19 20 21 23 23 22 21
26 26 27 28 29 30 31 31 31 31 30 31 32 32 33 34 33 31 31 32 32 33 34 34 34 33 33 33 33 32 31 31 31 30 29 30 30 30 31 32 30 29 28 25 24 25 23 21 22 24 25 23 21 21 20 19 20 22 23 24 23 22 21
26 24 24 26 28 29 31 31 31 30 30 30 31 33 34 34 34 34 34 34 33 33 33 34 35 34 33 33 33 33 32 31 31 32 32 31 32 32 33 32 28 27 28 25 24 25 24 25 27 27 25 23 22 22 21 22 23 23 24 23 21 21 21
29 25 23 24 26 28 30 30 29 29 29 30 31 33 34 33 34 35 35 35 34 32 31 32 35 35 33 32 34 33 32 31 32 34 35 34 33 34 34 32 29 28 27 25 25 28 29 29 29 28 26 25 24 23 23 24 25 24 23 22 20 20 20
30 27 24 23 25 27 28 28 28 28 29 31 33 35 35 34 35 35 34 34 35 33 31 33 35 34 33 33 35 34 32 33 34 37 38 36 34 33 34 32 29 28 26 25 27 31 31 30 29 28 27 26 25 25 24 25 25 24 24 23 22 22 21
30 28 26 24 24 25 26 27 28 29 30 32 34 36 38 38 37 36 35 36 36 33 31 32 33 32 32 34 35 35 35 36 37 38 38 36 33 33 33 31 28 26 26 27 29 30 29 29 29 29 27 25 25 26 26 25 24 24 24 24 24 23 22
29 29 27 23 22 23 25 26 27 28 29 31 32 34 37 39 37 35 36 38 37 35 31 31 33 33 33 32 34 35 37 38 39 37 36 35 34 32 31 30 29 28 28 29 29 29 29 27 27 27 27 25 24 24 25 25 24 24 24 25 24 23 21
28 27 26 22 20 22 24 24 23 24 26 28 29 30 31 32 31 31 34 38 39 36 32 31 33 33 33 33 35 38 39 38 36 34 33 33 33 32 31 31 31 30 28 26 25 26 27 25 23 23 24 23 22 23 23 23 23 23 24 24 24 22 20
27 25 22 20 19 20 22 21 20 20 19 18 19 24 26 26 26 28 30 33 35 34 30 31 33 33 33 34 36 38 38 36 35 32 31 31 32 33 34 34 33 31 28 25 24 24 24 24 23 22 22 22 22 22 22 22 22 23 23 22 22 21 20
26 22 18 17 17 18 19 18 18 19 17 12 12 20 27 26 26 27 27 26 30 33 32 32 33 32 32 35 38 37 35 33 31 29 30 32 34 36 36 36 34 30 27 26 25 24 24 24 24 24 23 23 22 22 21 22 23 22 21 21 20 20 20
25 19 16 15 15 15 16 16 17 18 19 18 16 18 26 30 28 28 26 21 21 26 30 31 30 28 28 30 33 33 30 27 26 28 32 36 38 37 36 35 33 29 27 27 27 26 26 26 27 26 25 25 24 22 22 22 22 21 20 20 20 20 20
22 16 13 13 14 16 17 16 16 16 17 19 18 16 21 29 29 26 25 20 16 18 24 27 26 24 23 23 24 23 23 24 27 31 33 33 32 33 33 33 31 28 27 27 27 27 28 28 27 26 25 24 24 23 22 21 20 20 20 20 20 20 19
18 13 12 12 13 15 15 13 14 16 15 18 19 15 15 20 24 24 23 21 17 17 22 24 22 21 22 22 23 23 23 25 28 31 31 29 27 28 30 31 30 27 24 23 23 23 24 26 26 25 23 22 22 21 20 19 19 19 20 20 20 18 18
14 11 11 12 13 13 13 12 12 15 17 20 22 20 16 16 18 21 23 20 17 18 21 21 19 19 20 23 28 29 29 29 29 28 29 29 27 26 27 29 28 25 23 22 21 20 20 22 23 23 22 20 20 19 18 18 19 19 20 20 18 17 17
13 11 10 12 14 13 12 11 10 12 15 18 19 18 17 16 15 16 19 18 15 14 15 17 18 19 20 23 27 29 30 30 27 25 25 26 27 26 26 26 25 23 22 21 20 20 21 22 22 22 21 20 19 18 18 18 18 19 19 19 17 17 17
13 13 12 13 15 15 11 8 8 9 9 12 15 15 15 16 15 13 15 18 16 12 11 14 18 20 21 21 21 23 25 26 24 24 24 25 25 25 25 26 25 22 20 20 20 21 22 23 22 21 21 20 19 17 18 18 19 19 19 18 18 18 19
15 16 15 12 13 15 12 6 5 9 10 11 13 14 14 15 15 16 17 20 20 17 13 13 15 16 18 20 20 20 22 23 23 24 25 26 26 24 23 23 23 22 20 21 22 23 22 21 19 18 19 19 18 17 18 19 19 19 19 18 18 19 20
16 17 16 12 11 15 15 8 5 8 13 15 15 14 14 15 17 19 21 22 22 20 16 13 12 11 13 17 21 23 23 24 25 25 25 25 23 22 22 22 23 23 22 22 24 23 21 20 19 19 19 18 17 17 18 18 19 19 19 19 19 20 20
17 17 16 15 14 15 16 13 10 12 16 18 16 14 14 15 15 16 18 21 21 19 16 13 12 11 11 15 20 23 24 24 24 25 24 22 20 20 21 22 23 22 20 21 22 21 19 19 20 20 18 17 16 17 18 18 18 19 19 20 20 21 20
17 17 17 17 17 16 16 17 16 16 17 16 14 13 13 12 12 12 13 14 14 13 12 11 10 11 13 15 19 22 23 21 20 21 22 21 18 18 19 20 20 19 18 19 20 19 18 19 19 18 17 15 16 17 18 19 19 20 21 22 22 22 22
17 19 18 17 17 17 18 19 18 16 15 14 12 12 12 12 11 12 12 10 10 10 10 10 9 10 12 15 18 20 21 19 17 17 18 18 17 16 17 18 18 17 17 17 17 18 19 18 17 16 15 15 15 17 18 19 20 21 22 23 24 24 24
19 20 18 16 16 17 17 19 17 14 13 12 11 11 12 12 11 12 12 12 10 10 11 11 9 8 10 12 14 15 16 16 15 15 15 15 14 14 15 16 16 15 15 15 15 15 16 15 14 14 14 15 16 18 19 20 21 22 23 24 25 26 26
20 19 17 16 17 16 15 16 15 12 11 11 10 10 10 10 10 10 11 12 11 10 11 12 9 8 9 11 12 14 15 16 16 16 16 15 14 14 13 14 15 14 14 15 15 14 14 14 14 13 14 15 16 17 19 21 22 22 23 24 25 26 25
19 20 17 17 18 18 18 17 14 10 11 12 11 9 9 9 8 8 8 9 9 9 10 11 9 8 9 10 11 13 14 14 14 14 14 15 15 15 14 15 15 14 13 13 14 14 14 15 15 15 15 16 17 18 20 21 22 23 24 24 24 25 25
19 21 20 19 19 21 22 19 13 11 13 13 11 9 9 8 8 8 8 9 9 9 8 8 6 6 7 8 9 9 9 9 9 10 14 16 17 17 17 17 16 14 13 12 13 14 15 15 16 16 17 17 18 20 21 22 23 24 24 24 24 25 26
18 22 24 22 21 23 24 20 15 15 15 14 12 11 10 9 10 11 11 10 10 9 7 4 2 4 5 8 9 10 10 9 9 11 13 13 14 15 16 17 16 13 12 13 14 15 16 16 17 17 17 19 21 22 23 23 24 24 24 24 26 27 27
18 22 26 27 26 27 27 23 20 19 18 15 13 13 12 11 11 12 11 10 9 8 6 3 1 3 4 7 8 9 10 10 10 11 9 5 8 11 14 14 13 12 13 15 16 17 17 18 19 19 20 21 22 23 23 23 23 24 25 26 27 27 27
19 21 26 30 30 29 28 26 24 23 21 17 14 13 14 12 12 11 10 8 7 6 5 4 2 1 3 6 7 8 8 7 6 7 5 3 5 9 12 12 11 11 13 15 16 18 20 20 20 20 20 20 21 23 23 23 24 25 26 27 28 28 28
Wind_Direction
272 269 261 254 252 253 258 262 262 256 254 257 252 242 235 232 231 230 228 227 228 231 231 226 223 227 228 227 227 226 226 225 227 229 230 234 235 234 236 238 240 243 247 247 245 243 244 245 244 243 241 240 239 239 241 243 244 245 247 248 249 251 255
277 273 264 255 254 257 257 259 262 260 254 255 256 249 241 236 232 229 227 226 226 230 233 228 224 227 228 227 228 228 227 225 225 228 230 234 237 236 236 238 242 245 248 250 248 245 244 245 245 244 243 242 240 239 241 244 246 246 246 247 249 251 254
282 281 277 268 261 258 255 255 260 262 258 255 256 253 245 237 232 229 227 226 225 227 232 230 226 230 232 231 230 230 230 227 226 228 230 233 236 238 237 237 241 245 248 249 247 244 244 244 245 245 244 242 241 241 241 243 245 247 247 248 250 252 255
279 276 278 279 274 263 254 252 256 260 259 254 253 253 249 240 233 230 230 230 228 228 232 232 226 227 230 230 229 230 232 232 230 231 232 235 238 240 240 237 237 239 243 246 246 244 244 245 245 246 246 244 243 243 244 243 244 245 247 249 250 253 257
282 275 272 271 272 270 261 251 251 257 257 253 252 251 251 246 238 233 232 233 232 230 231 232 228 227 230 229 226 227 230 231 232 233 235 237 239 240 242 241 239 237 237 240 241 241 243 245 245 245 245 245 244 244 245 245 245 246 248 250 252 257 263
279 276 271 266 266 269 268 257 249 252 254 253 251 250 251 250 243 237 234 234 234 232 232 233 230 230 233 229 225 225 225 226 229 231 232 233 236 238 240 242 241 238 235 235 235 237 239 243 244 242 241 242 242 243 245 247 248 249 251 254 258 264 266
275 273 270 267 265 265 267 262 252 249 252 252 251 249 250 251 247 242 239 237 234 231 232 235 234 234 234 230 227 226 225 226 228 230 231 231 234 236 238 240 239 236 234 232 231 232 235 239 241 240 238 238 239 241 244 247 248 248 251 253 256 258 260
274 272 269 267 266 264 264 263 256 250 250 251 250 248 247 248 249 247 244 240 234 229 228 232 235 236 235 233 232 229 228 230 233 235 235 232 232 235 238 239 239 236 233 230 230 231 232 233 235 237 237 238 239 241 243 245 247 249 250 249 249 251 256
274 273 270 267 266 264 262 261 259 254 251 251 251 248 244 244 247 248 247 243 237 230 227 229 233 234 234 236 236 232 229 230 234 238 239 234 232 233 235 236 236 235 234 232 231 232 232 233 232 231 234 237 240 241 240 242 245 250 253 252 252 256 260
274 273 272 269 266 264 261 259 259 257 254 252 251 250 248 245 245 246 247 248 245 236 229 228 230 231 230 233 236 233 230 229 230 235 238 236 233 231 233 235 233 233 233 232 232 234 233 234 233 230 231 235 239 242 242 243 246 250 252 254 256 258 262
277 273 272 269 266 263 260 257 257 257 255 252 250 250 251 250 247 245 245 246 245 240 233 228 227 228 228 229 233 233 231 229 228 232 235 235 234 232 233 234 232 233 236 234 233 236 235 235 236 235 234 234 237 242 245 245 245 246 248 251 254 259 264
281 276 272 268 264 261 257 255 256 256 255 253 250 249 250 249 248 246 246 244 239 236 234 230 227 227 226 228 231 232 231 229 228 229 232 233 233 233 234 234 231 234 239 238 235 240 242 240 240 240 238 236 237 239 243 245 245 245 247 250 254 260 264
282 277 272 266 261 257 253 252 255 255 255 254 253 250 248 247 245 244 245 244 238 233 232 232 230 227 225 226 230 231 231 231 230 229 230 232 232 233 234 233 231 232 236 235 234 241 244 240 240 242 242 239 239 239 240 243 245 247 251 254 256 259 261
281 276 271 264 259 255 251 252 255 256 256 255 254 252 250 248 244 242 243 244 240 233 229 230 231 228 224 224 229 230 230 233 233 231 230 230 231 233 234 233 231 231 233 233 232 235 238 238 240 244 243 242 244 246 245 246 248 251 256 259 259 258 260
279 273 267 263 260 256 253 252 254 255 254 254 255 255 254 252 247 242 242 241 236 227 220 222 227 227 224 224 227 229 230 232 234 233 232 231 231 233 234 233 231 231 231 232 233 235 238 239 242 245 246 247 252 254 253 252 253 254 257 260 260 260 262
277 268 262 261 260 258 254 251 252 254 253 254 256 257 257 257 251 242 237 235 230 223 218 219 222 222 222 225 226 227 228 229 231 233 233 233 234 235 236 237 237 238 238 237 237 239 242 243 245 247 249 252 255 256 254 252 254 256 257 259 260 261 264
273 263 258 258 260 259 254 250 252 256 257 258 257 254 254 254 249 240 236 232 228 225 222 222 222 217 216 221 225 227 228 228 228 231 233 234 235 236 238 240 241 242 244 245 244 243 244 247 249 248 248 250 252 252 250 251 255 258 257 258 260 262 265
271 262 258 258 261 259 253 249 251 256 263 266 259 250 244 240 238 237 237 234 230 226 222 222 222 216 213 218 224 226 226 225 226 228 230 232 234 234 235 238 240 240 243 245 244 242 243 247 249 247 245 245 245 246 248 251 256 258 257 257 259 261 263
270 264 260 260 260 257 251 248 248 250 261 271 254 232 220 218 225 233 233 230 227 223 223 226 225 220 215 215 219 224 226 224 225 227 228 231 233 233 233 236 238 239 239 240 240 239 241 245 246 244 242 241 244 248 251 252 254 255 255 256 258 259 260
272 267 263 258 254 253 248 245 244 241 244 254 243 221 213 216 226 231 231 230 227 227 232 232 228 228 227 220 217 221 225 227 228 230 231 232 232 229 230 233 236 239 240 240 240 240 241 243 242 242 242 244 248 250 249 249 250 250 250 252 254 256 258
275 270 261 251 247 248 244 238 238 238 237 243 252 242 229 227 231 234 235 239 240 237 234 228 226 233 239 232 224 223 226 231 233 229 228 230 231 229 229 231 235 239 241 241 241 241 241 242 242 242 243 246 247 246 245 245 245 245 247 250 252 253 256
277 268 252 244 242 243 239 232 232 236 236 235 243 250 236 227 229 233 235 238 246 242 229 222 224 229 231 234 236 235 235 236 233 227 225 227 229 229 230 231 233 236 238 238 239 239 239 240 241 241 241 242 243 243 242 242 242 244 248 250 251 253 256
273 256 239 239 243 245 247 243 236 235 228 218 221 231 232 225 225 227 230 235 242 239 229 226 230 230 226 226 230 232 233 230 227 224 224 225 226 225 225 227 229 231 235 237 236 236 235 235 235 236 237 238 240 241 241 242 244 246 248 250 252 254 257
263 239 227 236 242 243 249 252 242 234 227 218 217 223 225 225 225 224 228 235 238 236 233 232 234 234 229 224 222 225 229 230 229 227 225 226 227 225 224 226 228 231 236 238 235 232 232 232 230 230 232 234 235 236 239 243 245 246 248 251 253 256 259
248 222 216 233 241 239 238 239 235 234 233 223 216 217 218 217 217 220 225 228 229 229 228 229 233 236 233 228 225 225 228 231 231 229 227 227 228 228 227 228 229 233 236 237 234 232 231 230 229 226 225 225 228 232 237 241 245 247 250 253 255 256 258
238 222 220 237 245 239 235 235 230 232 235 219 204 201 205 206 205 211 218 220 221 226 229 230 236 240 241 238 232 226 227 229 228 226 224 225 227 230 231 230 229 231 235 238 239 237 232 230 227 223 222 223 226 230 236 240 244 247 250 252 253 253 253
236 228 227 239 245 234 228 231 224 227 235 224 205 197 199 203 205 209 215 218 222 229 234 234 240 247 251 250 245 238 235 232 230 229 224 222 225 230 233 231 229 230 233 238 241 238 232 229 226 222 223 226 228 230 235 240 243 245 247 248 249 250 250
237 228 224 226 228 223 222 224 217 227 239 238 224 212 212 214 213 211 213 215 218 222 224 226 234 246 253 251 247 243 239 236 238 239 231 224 226 229 230 229 227 225 225 230 233 230 224 225 226 224 225 229 231 232 236 239 241 243 244 245 247 248 249
237 229 224 220 214 213 218 223 226 233 239 238 229 215 212 214 211 212 216 216 213 212 214 220 230 241 248 248 244 240 240 243 246 242 232 227 227 228 228 228 225 219 217 223 230 228 224 223 222 223 229 235 235 235 237 237 238 240 241 242 245 247 250
233 224 222 219 213 210 211 213 219 224 223 222 216 204 206 216 218 222 231 231 225 223 221 226 237 246 250 248 243 241 246 250 246 237 232 233 232 228 226 225 220 215 215 221 227 230 231 230 227 229 239 241 237 237 238 237 237 238 238 240 244 247 250
229 220 224 222 215 211 210 210 217 221 213 208 205 203 211 223 226 227 236 243 248 252 252 250 253 258 259 253 247 249 253 250 240 231 231 233 231 226 222 221 218 217 219 222 223 224 228 234 237 241 246 245 241 240 240 238 238 238 239 242 246 250 253
231 225 230 226 213 210 212 214 221 223 211 203 205 209 216 222 224 227 233 234 237 247 253 254 258 271 277 270 263 261 256 247 239 237 237 237 235 230 224 221 221 222 223 224 225 226 231 239 245 247 248 247 246 245 244 242 241 240 242 247 252 254 257
238 233 230 221 211 208 213 218 221 216 206 207 214 220 225 228 224 226 233 232 231 237 245 248 254 274 289 286 279 272 263 253 248 246 247 249 248 242 231 219 215 218 220 221 224 228 233 240 243 242 243 245 247 247 244 241 241 242 246 251 254 257 259
238 234 228 220 214 212 218 223 221 211 209 219 226 227 232 234 223 216 223 223 217 222 237 246 257 274 288 292 288 281 273 261 249 247 254 256 251 243 232 219 212 212 212 213 218 222 227 231 234 235 237 242 246 245 242 240 242 247 251 254 255 258 261
232 229 226 221 217 220 226 228 224 216 218 225 227 221 221 223 212 201 205 209 207 212 229 245 268 294 310 321 319 308 293 274 263 272 275 264 251 241 231 221 214 211 208 208 213 218 223 228 233 237 241 245 247 247 245 245 249 253 256 257 258 260 262
229 225 224 221 220 226 232 232 226 219 215 216 219 217 211 207 202 198 198 201 206 213 222 236 309 340 344 348 345 337 327 316 313 315 301 268 243 235 228 222 220 219 217 219 222 223 227 231 236 241 244 246 247 246 245 248 252 255 256 257 259 261 262
231 225 221 220 223 229 230 228 225 220 212 210 218 219 209 202 202 202 197 196 202 212 218 223 294 341 342 346 348 345 342 339 335 334 327 279 234 229 226 227 232 236 234 233 230 229 232 234 236 240 243 244 244 243 243 247 251 254 256 257 259 261 264
235 229 222 220 226 231 228 224 222 219 215 216 223 218 208 201 198 196 194 193 199 207 214 218 227 271 317 331 335 337 340 339 332 331 335 307 252 236 226 229 244 250 242 235 231 231 234 235 233 234 239 244 244 243 245 250 253 254 255 257 260 263 266
Height
5896 5896 5895 5895 5895 5895 5894 5893 5893 5892 5892 5892 5892 5893 5893 5894 5895 5895 5897 5900 5901 5902 5903 5904 5905 5905 5906 5907 5909 5910 5912 5913 5914 5915 5915 5916 5917 5918 5919 5920 5920 5920 5920 5921 5921 5921 5921 5921 5921 5921 5921 5922 5922 5922 5922 5923 5923 5923 5922 5922 5922 5922 5921
5894 5893 5893 5893 5893 5893 5892 5892 5891 5890 5890 5890 5890 5890 5890 5891 5892 5893 5894 5896 5898 5899 5899 5901 5903 5904 5905 5906 5907 5908 5909 5910 5910 5911 5912 5912 5914 5915 5916 5917 5917 5918 5918 5918 5919 5919 5919 5918 5919 5919 5920 5920 5920 5921 5921 5921 5921 5921 5921 5921 5921 5921 5920
5891 5891 5890 5890 5890 5890 5890 5890 5888 5887 5888 5888 5888 5888 5888 5888 5889 5889 5890 5892 5894 5895 5895 5898 5901 5903 5903 5904 5904 5905 5906 5907 5907 5908 5908 5909 5910 5911 5913 5914 5915 5915 5915 5916 5916 5916 5916 5916 5916 5917 5918 5918 5919 5919 5919 5920 5920 5920 5920 5920 5920 5919 5919
5888 5888 5887 5887 5886 5886 5887 5887 5886 5885 5885 5885 5885 5885 5885 5886 5886 5886 5887 5888 5890 5891 5893 5896 5899 5899 5899 5899 5900 5902 5904 5905 5905 5906 5906 5907 5908 5909 5910 5911 5911 5912 5912 5913 5913 5913 5913 5914 5914 5914 5915 5916 5917 5917 5917 5918 5918 5918 5918 5918 5918 5918 5917
5884 5884 5883 5883 5882 5882 5883 5884 5884 5882 5882 5882 5881 5882 5882 5883 5884 5885 5885 5886 5887 5890 5892 5895 5895 5894 5895 5896 5897 5899 5901 5902 5903 5903 5904 5905 5905 5906 5907 5908 5908 5909 5909 5909 5909 5910 5911 5911 5912 5912 5913 5914 5914 5914 5914 5915 5915 5916 5916 5916 5916 5916 5916
5881 5880 5879 5879 5879 5878 5879 5880 5881 5880 5879 5879 5878 5878 5879 5881 5882 5883 5883 5884 5887 5890 5891 5892 5891 5890 5891 5894 5895 5896 5897 5898 5899 5900 5900 5901 5903 5904 5904 5904 5905 5905 5905 5906 5906 5907 5908 5909 5909 5910 5911 5911 5912 5911 5911 5912 5913 5914 5914 5914 5915 5915 5914
5877 5876 5875 5875 5875 5875 5875 5875 5877 5878 5877 5876 5875 5875 5876 5877 5879 5880 5882 5883 5885 5887 5889 5889 5889 5888 5888 5890 5892 5893 5894 5895 5896 5896 5898 5899 5900 5901 5901 5901 5901 5902 5902 5903 5903 5903 5904 5905 5906 5907 5908 5909 5909 5909 5909 5910 5911 5911 5912 5912 5912 5911 5910
5872 5871 5871 5871 5871 5871 5871 5871 5872 5874 5874 5873 5872 5872 5873 5874 5876 5877 5879 5881 5881 5883 5884 5885 5885 5885 5886 5887 5888 5890 5892 5893 5894 5894 5895 5896 5897 5897 5898 5898 5898 5899 5899 5900 5901 5901 5901 5902 5903 5904 5906 5906 5906 5906 5907 5907 5908 5908 5908 5908 5908 5908 5908
5867 5866 5866 5867 5867 5867 5867 5867 5868 5870 5871 5870 5870 5870 5870 5872 5874 5875 5876 5876 5878 5879 5880 5880 5880 5881 5883 5884 5885 5887 5889 5890 5891 5892 5892 5893 5893 5894 5894 5894 5895 5896 5896 5897 5898 5899 5899 5900 5901 5902 5904 5904 5904 5904 5905 5905 5905 5906 5906 5905 5905 5905 5905
5862 5861 5861 5862 5863 5863 5863 5863 5864 5865 5866 5866 5867 5867 5867 5868 5871 5873 5873 5874 5875 5877 5877 5876 5876 5877 5878 5880 5882 5884 5886 5887 5887 5888 5888 5889 5889 5890 5890 5890 5891 5891 5891 5893 5896 5897 5898 5900 5900 5901 5902 5902 5902 5902 5903 5904 5904 5904 5903 5903 5903 5903 5903
5857 5857 5857 5857 5858 5858 5858 5859 5859 5860 5860 5861 5862 5863 5864 5865 5867 5869 5870 5871 5872 5873 5873 5872 5871 5871 5873 5875 5877 5880 5882 5883 5883 5884 5884 5885 5885 5886 5886 5885 5886 5886 5888 5893 5896 5896 5899 5901 5900 5899 5899 5899 5900 5901 5902 5902 5902 5902 5901 5900 5900 5901 5901
5852 5852 5853 5853 5853 5853 5854 5854 5855 5855 5856 5856 5857 5859 5860 5861 5863 5865 5866 5866 5867 5868 5869 5868 5867 5867 5868 5870 5872 5875 5877 5878 5879 5879 5880 5880 5881 5881 5880 5880 5882 5884 5887 5894 5896 5895 5898 5900 5897 5896 5895 5896 5898 5899 5900 5900 5900 5899 5899 5898 5899 5899 5899
5847 5848 5849 5849 5848 5848 5849 5850 5851 5852 5852 5853 5853 5854 5854 5856 5859 5861 5862 5862 5862 5863 5865 5866 5865 5864 5864 5866 5868 5870 5873 5874 5875 5875 5875 5876 5876 5876 5875 5876 5881 5883 5885 5890 5894 5894 5894 5895 5893 5893 5894 5895 5896 5896 5897 5897 5897 5897 5896 5897 5897 5897 5896
5842 5843 5844 5844 5844 5844 5845 5846 5847 5848 5848 5849 5849 5849 5850 5853 5855 5856 5857 5858 5859 5860 5861 5862 5862 5861 5861 5863 5864 5866 5868 5869 5870 5871 5871 5871 5871 5872 5872 5874 5878 5881 5882 5886 5889 5889 5888 5889 5890 5890 5892 5893 5893 5893 5894 5894 5894 5894 5894 5894 5895 5894 5894
5837 5837 5838 5839 5839 5839 5840 5842 5843 5843 5844 5845 5845 5845 5847 5849 5850 5851 5853 5854 5855 5855 5855 5855 5856 5858 5858 5859 5861 5862 5863 5863 5864 5865 5866 5867 5869 5869 5870 5872 5875 5879 5881 5883 5884 5884 5885 5887 5888 5888 5889 5890 5891 5891 5891 5891 5892 5892 5892 5892 5892 5891 5891
5832 5832 5833 5834 5835 5835 5836 5837 5838 5839 5840 5841 5841 5841 5842 5843 5844 5847 5849 5850 5851 5852 5851 5850 5852 5854 5855 5856 5857 5858 5857 5856 5857 5858 5861 5864 5867 5868 5869 5872 5875 5877 5878 5878 5879 5880 5882 5884 5885 5885 5886 5887 5887 5887 5887 5887 5888 5889 5889 5889 5889 5888 5888
5826 5826 5828 5830 5831 5831 5831 5832 5833 5834 5835 5836 5836 5836 5836 5837 5839 5842 5844 5846 5848 5849 5848 5848 5849 5850 5850 5851 5852 5852 5851 5849 5850 5853 5857 5861 5865 5868 5869 5871 5872 5872 5872 5874 5876 5878 5879 5880 5881 5882 5882 5883 5883 5883 5883 5884 5885 5886 5886 5886 5886 5885 5885
5820 5821 5824 5826 5827 5827 5827 5828 5829 5830 5830 5829 5829 5829 5830 5832 5835 5838 5840 5842 5845 5845 5844 5846 5847 5846 5845 5846 5846 5846 5845 5846 5849 5852 5855 5859 5863 5865 5866 5866 5867 5867 5868 5870 5872 5874 5875 5876 5877 5877 5878 5879 5880 5880 5880 5881 5882 5882 5883 5883 5883 5882 5882
5816 5818 5821 5822 5822 5822 5823 5825 5826 5826 5826 5825 5824 5825 5827 5830 5832 5834 5836 5838 5841 5842 5841 5843 5844 5843 5842 5842 5840 5840 5842 5845 5848 5851 5854 5858 5860 5861 5862 5862 5862 5863 5864 5866 5868 5870 5871 5872 5873 5873 5874 5875 5875 5876 5877 5878 5879 5879 5879 5880 5880 5880 5880
5813 5815 5818 5818 5818 5818 5819 5821 5823 5824 5824 5824 5824 5825 5827 5829 5830 5832 5834 5835 5837 5838 5839 5840 5842 5841 5840 5838 5836 5837 5840 5844 5848 5852 5855 5855 5853 5854 5857 5858 5859 5860 5862 5864 5865 5867 5868 5868 5869 5870 5870 5871 5872 5873 5873 5874 5875 5875 5876 5876 5877 5877 5877
5810 5813 5814 5814 5814 5814 5815 5818 5820 5822 5823 5823 5824 5826 5828 5829 5830 5831 5832 5833 5833 5834 5836 5838 5839 5840 5839 5837 5837 5838 5841 5845 5849 5851 5850 5848 5847 5850 5854 5856 5858 5859 5860 5862 5863 5864 5865 5866 5866 5866 5867 5868 5868 5869 5869 5870 5871 5872 5872 5873 5874 5874 5874
5808 5811 5811 5811 5811 5810 5811 5815 5818 5820 5821 5822 5823 5825 5826 5828 5831 5831 5831 5831 5831 5833 5833 5834 5836 5836 5835 5836 5838 5840 5842 5844 5845 5846 5845 5846 5847 5849 5852 5854 5856 5857 5858 5859 5861 5862 5863 5863 5863 5864 5864 5865 5865 5866 5866 5867 5868 5869 5870 5870 5870 5870 5871
5807 5808 5809 5808 5807 5807 5809 5813 5816 5817 5817 5818 5820 5822 5823 5826 5829 5830 5830 5829 5830 5831 5832 5833 5834 5833 5832 5832 5834 5836 5837 5837 5839 5841 5843 5844 5845 5847 5848 5850 5852 5853 5855 5856 5858 5859 5860 5860 5860 5860 5861 5862 5863 5863 5864 5865 5866 5867 5867 5867 5868 5868 5869
5805 5806 5807 5806 5805 5806 5808 5811 5812 5813 5814 5815 5817 5818 5820 5822 5825 5827 5827 5827 5829 5829 5830 5832 5832 5830 5828 5827 5827 5829 5831 5833 5836 5838 5840 5841 5842 5843 5844 5845 5847 5849 5850 5852 5854 5855 5856 5856 5856 5857 5858 5859 5860 5861 5861 5862 5863 5864 5865 5865 5866 5867 5867
5802 5804 5805 5804 5803 5804 5806 5808 5810 5810 5811 5812 5814 5815 5816 5818 5821 5823 5825 5826 5827 5827 5827 5828 5828 5826 5825 5824 5825 5827 5830 5833 5835 5837 5839 5840 5840 5840 5841 5843 5844 5845 5846 5848 5850 5851 5851 5851 5851 5852 5854 5855 5856 5857 5859 5860 5861 5862 5862 5863 5864 5865 5865
5800 5801 5802 5802 5801 5802 5804 5806 5808 5809 5809 5810 5810 5811 5812 5815 5817 5819 5821 5824 5825 5824 5824 5825 5824 5824 5824 5825 5826 5828 5830 5832 5834 5835 5836 5837 5837 5838 5839 5841 5842 5843 5845 5846 5847 5848 5848 5848 5848 5850 5851 5852 5853 5854 5856 5857 5858 5858 5859 5860 5861 5862 5862
5799 5799 5800 5800 5799 5799 5802 5804 5806 5807 5808 5808 5808 5808 5809 5811 5813 5815 5817 5820 5821 5821 5821 5821 5822 5823 5825 5826 5827 5829 5830 5831 5832 5832 5832 5833 5834 5836 5838 5839 5840 5841 5843 5845 5846 5845 5846 5847 5848 5850 5850 5850 5850 5851 5852 5853 5854 5855 5856 5857 5858 5859 5859
5796 5797 5798 5799 5798 5798 5799 5801 5803 5804 5804 5805 5807 5807 5808 5809 5810 5812 5814 5816 5817 5818 5819 5819 5820 5822 5824 5824 5825 5826 5828 5829 5830 5830 5831 5832 5834 5836 5837 5837 5838 5839 5840 5842 5842 5842 5843 5846 5848 5849 5849 5848 5848 5849 5850 5851 5852 5853 5854 5855 5856 5857 5857
5794 5794 5795 5796 5796 5796 5798 5799 5801 5800 5799 5800 5803 5806 5807 5807 5809 5811 5813 5814 5815 5816 5817 5817 5819 5821 5822 5823 5823 5824 5826 5827 5828 5829 5832 5833 5833 5834 5834 5835 5836 5838 5839 5840 5839 5839 5841 5844 5845 5846 5847 5847 5847 5847 5848 5849 5850 5851 5852 5853 5853 5854 5855
5792 5792 5792 5793 5793 5794 5796 5797 5797 5797 5797 5798 5801 5805 5806 5808 5810 5811 5812 5814 5815 5816 5816 5816 5817 5819 5820 5821 5822 5823 5825 5826 5826 5827 5831 5832 5831 5831 5831 5833 5835 5837 5838 5838 5838 5839 5841 5843 5843 5844 5845 5845 5845 5846 5846 5847 5848 5849 5850 5850 5851 5851 5852
5790 5791 5791 5791 5791 5792 5793 5793 5793 5795 5797 5800 5803 5805 5806 5807 5809 5810 5811 5813 5815 5816 5816 5816 5817 5818 5819 5820 5821 5822 5823 5824 5824 5826 5829 5829 5829 5828 5828 5830 5833 5835 5835 5836 5837 5839 5841 5841 5842 5843 5843 5844 5844 5845 5845 5846 5846 5847 5847 5848 5848 5849 5850
5788 5789 5790 5790 5790 5791 5791 5791 5792 5795 5799 5801 5802 5803 5804 5806 5807 5808 5810 5811 5813 5814 5815 5815 5816 5818 5819 5819 5820 5821 5822 5823 5824 5826 5828 5828 5828 5827 5827 5829 5831 5832 5833 5835 5837 5838 5839 5840 5841 5842 5842 5843 5843 5844 5844 5844 5845 5845 5846 5846 5847 5847 5847
5787 5788 5790 5790 5790 5791 5791 5791 5793 5797 5799 5800 5800 5801 5803 5804 5805 5806 5808 5810 5811 5812 5813 5815 5817 5818 5819 5819 5820 5820 5821 5822 5824 5826 5827 5828 5828 5827 5827 5828 5829 5830 5831 5833 5834 5836 5837 5838 5839 5839 5840 5840 5841 5842 5842 5843 5843 5843 5844 5844 5844 5844 5844
5786 5787 5788 5789 5790 5790 5789 5791 5795 5798 5799 5798 5799 5800 5801 5803 5804 5805 5807 5808 5809 5810 5812 5814 5816 5818 5818 5818 5819 5819 5820 5821 5823 5825 5827 5827 5827 5827 5827 5827 5828 5829 5830 5831 5832 5833 5834 5835 5835 5836 5837 5838 5839 5839 5840 5840 5841 5841 5841 5841 5841 5841 5841
5786 5786 5787 5788 5788 5788 5787 5791 5795 5797 5797 5798 5798 5799 5800 5801 5803 5804 5806 5807 5808 5809 5811 5813 5815 5816 5817 5817 5817 5818 5819 5821 5823 5824 5825 5825 5826 5827 5827 5828 5828 5828 5828 5829 5829 5830 5831 5831 5832 5833 5834 5836 5837 5837 5838 5838 5838 5839 5839 5839 5839 5838 5839
5785 5785 5785 5786 5786 5785 5786 5790 5794 5796 5796 5797 5797 5797 5798 5800 5801 5802 5803 5804 5806 5808 5810 5812 5813 5814 5814 5815 5816 5816 5818 5819 5821 5822 5821 5822 5823 5825 5826 5827 5827 5827 5826 5826 5826 5826 5827 5828 5829 5831 5832 5833 5834 5834 5835 5835 5835 5836 5836 5836 5836 5835 5836
5783 5784 5784 5783 5782 5782 5785 5790 5792 5793 5794 5796 5796 5797 5798 5799 5800 5801 5801 5803 5805 5807 5809 5810 5812 5812 5812 5813 5814 5815 5815 5817 5818 5819 5819 5819 5821 5823 5824 5825 5826 5826 5825 5824 5824 5824 5824 5825 5826 5828 5829 5830 5830 5831 5832 5832 5833 5833 5833 5833 5832 5832 5832
5780 5781 5781 5780 5778 5780 5786 5789 5789 5790 5792 5794 5795 5796 5797 5798 5800 5801 5802 5803 5805 5806 5807 5809 5810 5811 5811 5811 5812 5813 5814 5815 5816 5817 5818 5818 5820 5821 5822 5824 5824 5824 5823 5823 5822 5822 5822 5823 5824 5825 5826 5827 5828 5828 5829 5829 5830 5830 5830 5829 5829 5829 5829